| time (UTC) | temp C | wind direction | speed KPH | gust KPH | rain 1hr cm | rain 24hr cm | rain mn cm | humidity % | barometer mb |
| 20260903130529 | 17 | 0 | 0.0 | 0.0 | 0.00 | 0.28 | 0.28 | 98 | 1015.3 |
| 20260903130112 | 17 | 0 | 0.0 | 0.0 | 0.00 | 0.28 | 0.28 | 98 | 1015.4 |
| 20260903125531 | 16 | 0 | 0.0 | 0.0 | 0.00 | 0.28 | 0.28 | 98 | 1015.5 |
| 20260903125029 | 16 | 0 | 0.0 | 0.0 | 0.00 | 0.28 | 0.28 | 98 | 1015.7 |
| 20260903124547 | 16 | 0 | 0.0 | 0.0 | 0.00 | 0.28 | 0.28 | 98 | 1015.5 |
| 20260903124027 | 16 | 0 | 0.0 | 0.0 | 0.00 | 0.28 | 0.28 | 98 | 1015.6 |
| 20260903123530 | 16 | 0 | 0.0 | 0.0 | 0.00 | 0.28 | 0.28 | 98 | 1015.7 |
| 20260903123052 | 16 | 0 | 0.0 | 0.0 | 0.00 | 0.28 | 0.28 | 98 | 1015.7 |
| 20260903122527 | 16 | 0 | 0.0 | 0.0 | 0.00 | 0.28 | 0.28 | 98 | 1015.7 |
| 20260903122028 | 16 | 0 | 0.0 | 0.0 | 0.00 | 0.28 | 0.28 | 98 | 1015.7 |
| 20260903121553 | 16 | 0 | 0.0 | 0.0 | 0.00 | 0.28 | 0.28 | 98 | 1015.9 |
| 20260903121028 | 16 | 0 | 0.0 | 0.0 | 0.00 | 0.28 | 0.28 | 98 | 1015.9 |
| 20260903120532 | 16 | 0 | 0.0 | 0.0 | 0.00 | 0.28 | 0.28 | 98 | 1015.8 |
| 20260903120048 | 16 | 0 | 0.0 | 0.0 | 0.00 | 0.28 | 0.28 | 98 | 1016.0 |
| 20260903115529 | 16 | 0 | 0.0 | 0.0 | 0.00 | 0.28 | 0.28 | 98 | 1016.0 |
| 20260903115029 | 16 | 0 | 0.0 | 0.0 | 0.00 | 0.28 | 0.28 | 98 | 1016.1 |
| 20260903114551 | 16 | 0 | 0.0 | 0.0 | 0.00 | 0.28 | 0.28 | 98 | 1016.1 |
| 20260903114029 | 16 | 0 | 0.0 | 0.0 | 0.00 | 0.28 | 0.28 | 98 | 1016.1 |
| 20260903113530 | 16 | 0 | 0.0 | 0.0 | 0.00 | 0.28 | 0.28 | 98 | 1016.1 |
| 20260903113045 | 16 | 0 | 0.0 | 0.0 | 0.00 | 0.28 | 0.28 | 98 | 1015.9 |
| 20260903112528 | 16 | 0 | 0.0 | 0.0 | 0.00 | 0.28 | 0.28 | 98 | 1016.0 |
| 20260903112030 | 16 | 0 | 0.0 | 0.0 | 0.00 | 0.28 | 0.28 | 98 | 1016.1 |
| 20260903111603 | 16 | 0 | 0.0 | 0.0 | 0.00 | 0.28 | 0.28 | 98 | 1016.0 |
| 20260903111027 | 16 | 0 | 0.0 | 0.0 | 0.00 | 0.28 | 0.28 | 98 | 1016.1 |
| 20260903110531 | 16 | 0 | 0.0 | 0.0 | 0.00 | 0.28 | 0.28 | 98 | 1016.1 |
| 20260903110110 | 16 | 0 | 0.0 | 0.0 | 0.00 | 0.28 | 0.28 | 98 | 1016.2 |
| 20260903105529 | 16 | 0 | 0.0 | 0.0 | 0.00 | 0.28 | 0.28 | 98 | 1016.1 |
| 20260903105028 | 16 | 0 | 0.0 | 0.0 | 0.00 | 0.28 | 0.28 | 98 | 1016.0 |
| 20260903104549 | 16 | 0 | 0.0 | 0.0 | 0.00 | 0.28 | 0.28 | 98 | 1016.0 |
| 20260903104028 | 16 | 0 | 0.0 | 0.0 | 0.00 | 0.28 | 0.28 | 98 | 1015.9 |
| 20260903103532 | 16 | 0 | 0.0 | 0.0 | 0.00 | 0.28 | 0.28 | 98 | 1016.2 |
| 20260903103053 | 16 | 0 | 0.0 | 0.0 | 0.00 | 0.28 | 0.28 | 98 | 1015.9 |
| 20260903102528 | 16 | 0 | 0.0 | 0.0 | 0.00 | 0.28 | 0.28 | 98 | 1015.9 |
| 20260903102026 | 16 | 0 | 0.0 | 0.0 | 0.00 | 0.28 | 0.28 | 98 | 1016.1 |
| 20260903101559 | 16 | 0 | 0.0 | 0.0 | 0.00 | 0.28 | 0.28 | 98 | 1015.9 |
| 20260903101031 | 16 | 0 | 0.0 | 0.0 | 0.00 | 0.28 | 0.28 | 98 | 1015.7 |
| 20260903100530 | 16 | 0 | 0.0 | 0.0 | 0.00 | 0.28 | 0.28 | 98 | 1015.6 |
| 20260903100045 | 16 | 0 | 0.0 | 0.0 | 0.00 | 0.28 | 0.28 | 98 | 1015.8 |
| 20260903095532 | 16 | 0 | 0.0 | 0.0 | 0.00 | 0.28 | 0.28 | 98 | 1015.6 |
| 20260903095029 | 16 | 0 | 0.0 | 0.0 | 0.00 | 0.28 | 0.28 | 98 | 1015.7 |
| 20260903094553 | 16 | 0 | 0.0 | 0.0 | 0.00 | 0.28 | 0.28 | 98 | 1015.7 |
| 20260903094025 | 16 | 0 | 0.0 | 0.0 | 0.00 | 0.28 | 0.28 | 98 | 1015.9 |
| 20260903093604 | 16 | 0 | 0.0 | 0.0 | 0.00 | 0.28 | 0.28 | 98 | 1015.9 |
| 20260903093053 | 16 | 0 | 0.0 | 0.0 | 0.00 | 0.28 | 0.28 | 98 | 1015.9 |
| 20260903092533 | 16 | 0 | 0.0 | 0.0 | 0.00 | 0.28 | 0.28 | 98 | 1015.9 |
| 20260903092033 | 16 | 0 | 0.0 | 0.0 | 0.00 | 0.28 | 0.28 | 98 | 1015.8 |
| 20260903091549 | 16 | 0 | 0.0 | 0.0 | 0.00 | 0.28 | 0.28 | 98 | 1015.7 |
| 20260903091032 | 16 | 0 | 0.0 | 0.0 | 0.00 | 0.28 | 0.28 | 98 | 1015.8 |
| 20260903090531 | 16 | 0 | 0.0 | 0.0 | 0.00 | 0.28 | 0.28 | 98 | 1015.9 |
| 20260903090056 | 16 | 0 | 0.0 | 0.0 | 0.00 | 0.28 | 0.28 | 98 | 1016.1 |
| 20260903085531 | 16 | 0 | 0.0 | 0.0 | 0.00 | 0.28 | 0.28 | 98 | 1016.2 |
| 20260903085030 | 16 | 0 | 0.0 | 0.0 | 0.00 | 0.28 | 0.28 | 98 | 1016.2 |
| 20260903084553 | 16 | 0 | 0.0 | 0.0 | 0.00 | 0.28 | 0.28 | 98 | 1016.3 |
| 20260903084031 | 16 | 0 | 0.0 | 0.0 | 0.00 | 0.28 | 0.28 | 98 | 1016.3 |
| 20260903083531 | 16 | 0 | 0.0 | 0.0 | 0.00 | 0.28 | 0.28 | 98 | 1016.4 |
| 20260903083050 | 16 | 0 | 0.0 | 0.0 | 0.00 | 0.28 | 0.28 | 97 | 1016.4 |
| 20260903082531 | 16 | 0 | 0.0 | 0.0 | 0.00 | 0.28 | 0.28 | 97 | 1016.5 |
| 20260903082031 | 16 | 0 | 0.0 | 0.0 | 0.00 | 0.28 | 0.28 | 97 | 1016.4 |
| 20260903081554 | 16 | 0 | 0.0 | 0.0 | 0.00 | 0.28 | 0.28 | 97 | 1016.3 |
| 20260903081030 | 16 | 0 | 0.0 | 0.0 | 0.00 | 0.28 | 0.28 | 97 | 1016.4 |
| 20260903080530 | 16 | 0 | 0.0 | 0.0 | 0.00 | 0.28 | 0.28 | 97 | 1016.5 |
| 20260903080052 | 16 | 0 | 0.0 | 0.0 | 0.00 | 0.28 | 0.28 | 97 | 1016.4 |
| 20260903075531 | 16 | 0 | 0.0 | 0.0 | 0.00 | 0.28 | 0.28 | 97 | 1016.6 |
| 20260903075030 | 16 | 0 | 0.0 | 0.0 | 0.00 | 0.28 | 0.28 | 97 | 1016.6 |
| 20260903074601 | 16 | 0 | 0.0 | 0.0 | 0.00 | 0.28 | 0.28 | 97 | 1016.6 |
| 20260903074035 | 16 | 0 | 0.0 | 0.0 | 0.00 | 0.28 | 0.28 | 97 | 1016.7 |
| 20260903073530 | 16 | 0 | 0.0 | 0.0 | 0.03 | 0.28 | 0.28 | 97 | 1016.6 |
| 20260903073047 | 16 | 0 | 0.0 | 0.0 | 0.03 | 0.28 | 0.28 | 97 | 1016.7 |
| 20260903072530 | 16 | 0 | 0.0 | 0.0 | 0.03 | 0.28 | 0.28 | 97 | 1016.8 |
| 20260903072038 | 16 | 0 | 0.0 | 0.0 | 0.03 | 0.28 | 0.28 | 97 | 1016.7 |
| 20260903071554 | 16 | 0 | 0.0 | 0.0 | 0.03 | 0.28 | 0.28 | 97 | 1016.9 |
| 20260903071030 | 16 | 0 | 0.0 | 0.0 | 0.05 | 0.28 | 0.28 | 97 | 1016.8 |
| 20260903070530 | 16 | 0 | 0.0 | 0.0 | 0.05 | 0.28 | 0.28 | 96 | 1016.8 |
| 20260903070135 | 16 | 0 | 0.0 | 0.0 | 0.08 | 0.28 | 0.28 | 96 | 1017.0 |
| 20260903065528 | 16 | 0 | 0.0 | 0.0 | 0.10 | 0.28 | 0.28 | 96 | 1016.8 |
| 20260903065026 | 16 | 0 | 0.0 | 0.0 | 0.15 | 0.28 | 0.28 | 96 | 1016.5 |
| 20260903064547 | 16 | 0 | 0.0 | 0.0 | 0.20 | 0.28 | 0.28 | 96 | 1016.7 |
| 20260903064029 | 16 | 0 | 0.0 | 0.0 | 0.25 | 0.28 | 0.28 | 96 | 1016.2 |
| 20260903063532 | 16 | 0 | 0.0 | 0.0 | 0.23 | 0.25 | 0.25 | 96 | 1016.3 |
| 20260903063050 | 16 | 0 | 0.0 | 0.0 | 0.25 | 0.25 | 0.25 | 96 | 1016.3 |
| 20260903062527 | 16 | 0 | 0.0 | 0.0 | 0.25 | 0.25 | 0.25 | 95 | 1016.5 |
| 20260903062030 | 16 | 0 | 0.0 | 0.0 | 0.25 | 0.25 | 0.25 | 95 | 1016.7 |
| 20260903061554 | 16 | 0 | 0.0 | 0.0 | 0.25 | 0.25 | 0.25 | 95 | 1016.8 |
| 20260903061033 | 16 | 0 | 0.0 | 0.0 | 0.23 | 0.23 | 0.23 | 94 | 1017.3 |
| 20260903060528 | 16 | 0 | 0.0 | 0.0 | 0.23 | 0.23 | 0.23 | 94 | 1017.4 |
| 20260903060051 | 16 | 0 | 0.0 | 0.0 | 0.20 | 0.20 | 0.20 | 94 | 1017.5 |
| 20260903055527 | 16 | 0 | 0.0 | 0.0 | 0.18 | 0.18 | 0.18 | 94 | 1017.4 |
| 20260903055026 | 17 | 0 | 0.0 | 0.0 | 0.13 | 0.13 | 0.13 | 93 | 1017.5 |
| 20260903054553 | 17 | 0 | 0.0 | 0.0 | 0.08 | 0.08 | 0.08 | 93 | 1017.8 |
| 20260903054028 | 17 | 0 | 0.0 | 0.0 | 0.03 | 0.03 | 0.03 | 92 | 1018.1 |
| 20260903053528 | 17 | 0 | 0.0 | 0.0 | 0.03 | 0.03 | 0.03 | 92 | 1018.0 |
| 20260903053107 | 17 | 0 | 0.0 | 0.0 | 0.00 | 0.00 | 0.00 | 91 | 1018.2 |
| 20260903052529 | 17 | 0 | 0.0 | 0.0 | 0.00 | 0.00 | 0.00 | 91 | 1018.4 |
| 20260903052028 | 17 | 0 | 0.0 | 0.0 | 0.00 | 0.00 | 0.00 | 91 | 1018.4 |
| 20260903051552 | 17 | 0 | 0.0 | 0.0 | 0.00 | 0.00 | 0.00 | 90 | 1018.5 |
| 20260903051033 | 17 | 0 | 0.0 | 0.0 | 0.00 | 0.00 | 0.00 | 90 | 1018.5 |
| 20260903050532 | 17 | 0 | 0.0 | 0.0 | 0.00 | 0.00 | 0.00 | 90 | 1018.5 |
| 20260903050046 | 17 | 0 | 0.0 | 0.0 | 0.00 | 0.00 | 0.00 | 89 | 1018.7 |
| 20260903045527 | 17 | 0 | 0.0 | 0.0 | 0.00 | 0.00 | 0.00 | 89 | 1018.6 |
| 20260903045028 | 17 | 0 | 0.0 | 0.0 | 0.00 | 0.00 | 0.00 | 88 | 1018.6 |
| 20260903044556 | 17 | 0 | 0.0 | 0.0 | 0.00 | 0.00 | 0.00 | 88 | 1018.5 |
| 20260903044031 | 17 | 0 | 0.0 | 0.0 | 0.00 | 0.00 | 0.00 | 88 | 1018.4 |
| 20260903043529 | 17 | 0 | 0.0 | 0.0 | 0.00 | 0.00 | 0.00 | 88 | 1018.5 |
| 20260903043051 | 17 | 0 | 0.0 | 0.0 | 0.00 | 0.00 | 0.00 | 87 | 1018.6 |
| 20260903042531 | 18 | 0 | 0.0 | 0.0 | 0.00 | 0.00 | 0.00 | 87 | 1018.6 |
| 20260903042029 | 18 | 0 | 0.0 | 0.0 | 0.00 | 0.00 | 0.00 | 87 | 1018.4 |
| 20260903041548 | 18 | 0 | 0.0 | 0.0 | 0.00 | 0.00 | 0.00 | 87 | 1018.6 |
| 20260903041028 | 18 | 0 | 0.0 | 0.0 | 0.00 | 0.00 | 0.00 | 86 | 1018.8 |
| 20260903040530 | 18 | 0 | 0.0 | 0.0 | 0.00 | 0.00 | 0.00 | 86 | 1018.9 |
| 20260903040046 | 18 | 0 | 0.0 | 0.0 | 0.00 | 0.00 | 0.00 | 86 | 1018.8 |
| 20260903035527 | 18 | 0 | 0.0 | 0.0 | 0.00 | 0.00 | 0.00 | 86 | 1018.8 |
| 20260903035027 | 18 | 0 | 0.0 | 0.0 | 0.00 | 0.00 | 0.00 | 86 | 1018.9 |
| 20260903034552 | 18 | 0 | 0.0 | 0.0 | 0.00 | 0.00 | 0.00 | 86 | 1018.7 |
| 20260903034026 | 18 | 0 | 0.0 | 1.6 | 0.00 | 0.00 | 0.00 | 85 | 1018.4 |
| 20260903033529 | 18 | 0 | 0.0 | 1.6 | 0.00 | 0.00 | 0.00 | 85 | 1018.5 |
| 20260903033107 | 18 | 148 | 0.0 | 1.6 | 0.00 | 0.00 | 0.00 | 86 | 1018.7 |
| 20260903032532 | 18 | 0 | 0.0 | 1.6 | 0.00 | 0.00 | 0.00 | 86 | 1018.6 |
| 20260903032029 | 18 | 0 | 0.0 | 1.6 | 0.00 | 0.00 | 0.00 | 86 | 1018.5 |
| 20260903031544 | 18 | 0 | 0.0 | 0.0 | 0.00 | 0.00 | 0.00 | 86 | 1018.4 |
| 20260903031029 | 18 | 0 | 0.0 | 1.6 | 0.00 | 0.00 | 0.00 | 86 | 1018.7 |
| 20260903030530 | 18 | 0 | 0.0 | 1.6 | 0.00 | 0.00 | 0.00 | 87 | 1018.6 |
| 20260903030047 | 18 | 0 | 0.0 | 0.0 | 0.00 | 0.00 | 0.00 | 87 | 1018.8 |
| 20260903025525 | 18 | 0 | 0.0 | 0.0 | 0.00 | 0.00 | 0.00 | 86 | 1018.9 |
| 20260903025030 | 18 | 0 | 0.0 | 0.0 | 0.00 | 0.00 | 0.00 | 86 | 1018.7 |
| 20260903024545 | 18 | 0 | 0.0 | 0.0 | 0.00 | 0.00 | 0.00 | 85 | 1018.9 |
| 20260903024025 | 18 | 0 | 0.0 | 1.6 | 0.00 | 0.00 | 0.00 | 85 | 1019.2 |
| 20260903023528 | 18 | 0 | 0.0 | 1.6 | 0.00 | 0.00 | 0.00 | 84 | 1019.6 |
| 20260903023054 | 18 | 0 | 0.0 | 1.6 | 0.00 | 0.00 | 0.00 | 84 | 1019.5 |
| 20260903022529 | 18 | 0 | 0.0 | 0.0 | 0.00 | 0.00 | 0.00 | 84 | 1019.9 |
| 20260903022026 | 18 | 0 | 0.0 | 0.0 | 0.00 | 0.00 | 0.00 | 84 | 1019.9 |
| 20260903021603 | 18 | 0 | 0.0 | 0.0 | 0.00 | 0.00 | 0.00 | 83 | 1019.8 |
| 20260903021027 | 18 | 0 | 0.0 | 0.0 | 0.00 | 0.00 | 0.00 | 83 | 1019.7 |
| 20260903020528 | 18 | 0 | 0.0 | 0.0 | 0.00 | 0.00 | 0.00 | 83 | 1020.1 |
| 20260903020054 | 18 | 0 | 0.0 | 0.0 | 0.00 | 0.00 | 0.00 | 84 | 1020.0 |
| 20260903015527 | 18 | 0 | 0.0 | 0.0 | 0.00 | 0.00 | 0.00 | 83 | 1020.1 |
| 20260903015029 | 18 | 0 | 0.0 | 0.0 | 0.00 | 0.00 | 0.00 | 84 | 1020.4 |
| 20260903014551 | 18 | 0 | 0.0 | 0.0 | 0.00 | 0.00 | 0.00 | 83 | 1019.9 |
| 20260903014027 | 18 | 0 | 0.0 | 0.0 | 0.00 | 0.00 | 0.00 | 83 | 1019.8 |
| 20260903013530 | 18 | 155 | 0.0 | 0.0 | 0.00 | 0.00 | 0.00 | 84 | 1020.1 |
| 20260903013052 | 18 | 0 | 0.0 | 0.0 | 0.00 | 0.00 | 0.00 | 84 | 1020.0 |
| 20260903012528 | 18 | 0 | 0.0 | 0.0 | 0.00 | 0.00 | 0.00 | 86 | 1020.0 |
| 20260903012028 | 18 | 0 | 0.0 | 0.0 | 0.00 | 0.00 | 0.00 | 85 | 1020.0 |
| 20260903011555 | 18 | 0 | 0.0 | 0.0 | 0.00 | 0.00 | 0.00 | 85 | 1019.9 |
| 20260903011028 | 18 | 0 | 0.0 | 0.0 | 0.00 | 0.00 | 0.00 | 85 | 1019.8 |
| 20260903010527 | 18 | 0 | 0.0 | 0.0 | 0.00 | 0.00 | 0.00 | 85 | 1019.8 |
| 20260903010109 | 18 | 0 | 0.0 | 0.0 | 0.00 | 0.00 | 0.00 | 85 | 1019.8 |
| 20260903005527 | 18 | 0 | 0.0 | 0.0 | 0.00 | 0.00 | 0.00 | 85 | 1019.5 |
| 20260903005027 | 18 | 0 | 0.0 | 0.0 | 0.00 | 0.00 | 0.00 | 84 | 1019.3 |
| 20260903004557 | 18 | 0 | 0.0 | 0.0 | 0.00 | 0.00 | 0.00 | 85 | 1019.0 |
| 20260903004029 | 18 | 0 | 0.0 | 0.0 | 0.00 | 0.00 | 0.00 | 84 | 1019.2 |
| 20260903003529 | 18 | 0 | 0.0 | 0.0 | 0.00 | 0.00 | 0.00 | 84 | 1019.2 |
| 20260903003045 | 18 | 0 | 0.0 | 0.0 | 0.00 | 0.00 | 0.00 | 85 | 1019.4 |
| 20260903002529 | 18 | 0 | 0.0 | 0.0 | 0.00 | 0.00 | 0.00 | 85 | 1019.5 |
| 20260903002028 | 18 | 0 | 0.0 | 0.0 | 0.00 | 0.00 | 0.00 | 85 | 1019.5 |
| 20260903001553 | 18 | 0 | 0.0 | 0.0 | 0.00 | 0.00 | 0.00 | 86 | 1019.5 |
| 20260903001028 | 18 | 0 | 0.0 | 1.6 | 0.00 | 0.00 | 0.00 | 86 | 1019.6 |
| 20260903000528 | 18 | 0 | 0.0 | 1.6 | 0.00 | 0.00 | 0.00 | 87 | 1019.6 |
| 20260903000058 | 18 | 149 | 0.0 | 1.6 | 0.00 | 0.00 | 0.00 | 88 | 1019.7 |
| 20260902235528 | 18 | 0 | 0.0 | 3.2 | 0.00 | 0.00 | 0.00 | 89 | 1019.5 |
| 20260902235030 | 18 | 0 | 0.0 | 3.2 | 0.00 | 0.00 | 0.00 | 89 | 1019.6 |
| 20260902234550 | 18 | 0 | 0.0 | 3.2 | 0.00 | 0.00 | 0.00 | 89 | 1019.5 |
| 20260902234027 | 18 | 0 | 0.0 | 3.2 | 0.00 | 0.00 | 0.00 | 91 | 1019.5 |
| 20260902233530 | 19 | 0 | 0.0 | 0.0 | 0.00 | 0.00 | 0.00 | 92 | 1019.4 |
| 20260902233053 | 19 | 0 | 0.0 | 0.0 | 0.00 | 0.00 | 0.00 | 91 | 1019.6 |
| 20260902232526 | 19 | 0 | 0.0 | 0.0 | 0.00 | 0.00 | 0.00 | 91 | 1019.5 |
| 20260902232029 | 19 | 0 | 0.0 | 0.0 | 0.00 | 0.00 | 0.00 | 91 | 1020.0 |
| 20260902231550 | 20 | 0 | 0.0 | 0.0 | 0.00 | 0.00 | 0.00 | 91 | 1019.9 |
| 20260902231029 | 20 | 0 | 0.0 | 0.0 | 0.00 | 0.00 | 0.00 | 91 | 1020.1 |
| 20260902230528 | 20 | 0 | 0.0 | 0.0 | 0.00 | 0.00 | 0.00 | 91 | 1020.3 |
| 20260902230051 | 20 | 0 | 0.0 | 0.0 | 0.00 | 0.00 | 0.00 | 91 | 1020.5 |
| 20260902225529 | 20 | 0 | 0.0 | 0.0 | 0.00 | 0.00 | 0.00 | 91 | 1020.5 |
| 20260902225028 | 20 | 0 | 0.0 | 0.0 | 0.00 | 0.00 | 0.00 | 91 | 1020.7 |
| 20260902224552 | 20 | 0 | 0.0 | 0.0 | 0.00 | 0.00 | 0.00 | 91 | 1020.7 |
| 20260902224029 | 20 | 0 | 0.0 | 0.0 | 0.00 | 0.00 | 0.00 | 90 | 1020.6 |
| 20260902223526 | 20 | 0 | 0.0 | 0.0 | 0.00 | 0.00 | 0.00 | 90 | 1020.5 |
| 20260902223052 | 20 | 0 | 0.0 | 0.0 | 0.00 | 0.00 | 0.00 | 90 | 1020.7 |
| 20260902222530 | 20 | 0 | 0.0 | 0.0 | 0.00 | 0.00 | 0.00 | 90 | 1020.7 |
| 20260902222028 | 20 | 0 | 0.0 | 0.0 | 0.00 | 0.00 | 0.00 | 90 | 1020.7 |
| 20260902221615 | 20 | 0 | 0.0 | 0.0 | 0.00 | 0.00 | 0.00 | 89 | 1020.8 |
| 20260902221030 | 20 | 0 | 0.0 | 0.0 | 0.00 | 0.00 | 0.00 | 89 | 1020.7 |
| 20260902220528 | 20 | 0 | 0.0 | 0.0 | 0.00 | 0.00 | 0.00 | 88 | 1020.5 |
| 20260902220056 | 21 | 0 | 0.0 | 0.0 | 0.00 | 0.00 | 0.00 | 88 | 1020.5 |
| 20260902215531 | 21 | 0 | 0.0 | 0.0 | 0.00 | 0.00 | 0.00 | 87 | 1020.4 |
| 20260902215031 | 21 | 0 | 0.0 | 0.0 | 0.00 | 0.00 | 0.00 | 86 | 1020.5 |
| 20260902214550 | 21 | 0 | 0.0 | 0.0 | 0.00 | 0.00 | 0.00 | 85 | 1020.5 |
| 20260902214030 | 21 | 0 | 0.0 | 0.0 | 0.00 | 0.00 | 0.00 | 84 | 1020.5 |
| 20260902213529 | 21 | 0 | 0.0 | 0.0 | 0.00 | 0.00 | 0.00 | 84 | 1020.4 |
| 20260902213047 | 21 | 0 | 0.0 | 0.0 | 0.00 | 0.00 | 0.00 | 85 | 1020.4 |
| 20260902212530 | 21 | 0 | 0.0 | 0.0 | 0.00 | 0.00 | 0.00 | 86 | 1020.4 |
| 20260902212032 | 21 | 0 | 0.0 | 1.6 | 0.00 | 0.00 | 0.00 | 85 | 1020.4 |
| 20260902211609 | 21 | 0 | 0.0 | 1.6 | 0.00 | 0.00 | 0.00 | 84 | 1020.5 |
| 20260902211030 | 21 | 0 | 0.0 | 1.6 | 0.00 | 0.00 | 0.00 | 83 | 1020.5 |
| 20260902210532 | 21 | 0 | 0.0 | 1.6 | 0.00 | 0.00 | 0.00 | 83 | 1020.4 |
| 20260902210056 | 21 | 0 | 0.0 | 1.6 | 0.00 | 0.00 | 0.00 | 83 | 1020.4 |
| 20260902205530 | 21 | 0 | 0.0 | 1.6 | 0.00 | 0.00 | 0.00 | 83 | 1020.5 |
| 20260902205030 | 21 | 0 | 0.0 | 0.0 | 0.00 | 0.00 | 0.00 | 83 | 1020.4 |
| 20260902204553 | 21 | 0 | 0.0 | 0.0 | 0.00 | 0.00 | 0.00 | 83 | 1020.2 |
| 20260902204029 | 21 | 0 | 0.0 | 0.0 | 0.00 | 0.00 | 0.00 | 83 | 1020.2 |
| 20260902203530 | 21 | 0 | 0.0 | 0.0 | 0.00 | 0.00 | 0.00 | 84 | 1020.2 |
| 20260902203048 | 21 | 0 | 0.0 | 0.0 | 0.00 | 0.00 | 0.00 | 86 | 1020.1 |
| 20260902202531 | 21 | 0 | 0.0 | 0.0 | 0.00 | 0.00 | 0.00 | 86 | 1020.3 |
| 20260902202030 | 21 | 0 | 0.0 | 0.0 | 0.00 | 0.00 | 0.00 | 85 | 1020.3 |
| 20260902201558 | 21 | 0 | 0.0 | 0.0 | 0.00 | 0.00 | 0.00 | 86 | 1020.6 |
| 20260902201030 | 21 | 0 | 0.0 | 0.0 | 0.00 | 0.00 | 0.00 | 86 | 1020.5 |
| 20260902200532 | 21 | 0 | 0.0 | 0.0 | 0.00 | 0.00 | 0.00 | 84 | 1020.6 |
| 20260902200056 | 21 | 0 | 0.0 | 3.2 | 0.00 | 0.00 | 0.00 | 83 | 1020.7 |
| 20260902195533 | 21 | 346 | 0.0 | 3.2 | 0.00 | 0.03 | 0.00 | 80 | 1020.9 |
| 20260902195031 | 21 | 300 | 0.0 | 3.2 | 0.00 | 0.03 | 0.00 | 81 | 1021.0 |
| 20260902194549 | 22 | 0 | 0.0 | 0.0 | 0.00 | 0.03 | 0.00 | 82 | 1020.8 |
| 20260902194036 | 22 | 0 | 0.0 | 0.0 | 0.00 | 0.03 | 0.00 | 81 | 1020.8 |
| 20260902193530 | 22 | 0 | 0.0 | 1.6 | 0.00 | 0.03 | 0.00 | 83 | 1020.8 |
| 20260902193047 | 22 | 0 | 0.0 | 1.6 | 0.00 | 0.03 | 0.00 | 83 | 1020.7 |
| 20260902192530 | 22 | 0 | 0.0 | 0.0 | 0.00 | 0.03 | 0.00 | 81 | 1020.9 |
| 20260902192029 | 22 | 0 | 0.0 | 0.0 | 0.00 | 0.03 | 0.00 | 81 | 1020.9 |
| 20260902191555 | 21 | 0 | 0.0 | 1.6 | 0.00 | 0.03 | 0.00 | 82 | 1021.1 |
| 20260902191030 | 21 | 0 | 0.0 | 1.6 | 0.00 | 0.03 | 0.00 | 82 | 1021.2 |
| 20260902190530 | 21 | 0 | 0.0 | 1.6 | 0.00 | 0.03 | 0.00 | 82 | 1021.3 |
| 20260902190054 | 21 | 321 | 0.0 | 0.0 | 0.00 | 0.03 | 0.00 | 81 | 1021.1 |
| 20260902185531 | 21 | 0 | 0.0 | 0.0 | 0.00 | 0.08 | 0.00 | 82 | 1021.2 |
| 20260902185030 | 21 | 0 | 0.0 | 0.0 | 0.00 | 0.08 | 0.00 | 84 | 1021.1 |
| 20260902184550 | 21 | 0 | 0.0 | 0.0 | 0.00 | 0.08 | 0.00 | 87 | 1021.0 |
| 20260902184030 | 21 | 0 | 0.0 | 0.0 | 0.00 | 0.08 | 0.00 | 85 | 1021.0 |
| 20260902183532 | 21 | 0 | 0.0 | 0.0 | 0.00 | 0.08 | 0.00 | 84 | 1021.0 |
| 20260902183058 | 21 | 0 | 0.0 | 0.0 | 0.00 | 0.08 | 0.00 | 83 | 1021.1 |
| 20260902182532 | 21 | 0 | 0.0 | 0.0 | 0.00 | 0.08 | 0.00 | 82 | 1021.0 |
| 20260902182031 | 22 | 0 | 0.0 | 0.0 | 0.00 | 0.08 | 0.00 | 82 | 1021.1 |
| 20260902181554 | 22 | 0 | 0.0 | 0.0 | 0.00 | 0.08 | 0.00 | 79 | 1021.2 |
| 20260902181030 | 22 | 0 | 0.0 | 0.0 | 0.00 | 0.08 | 0.00 | 79 | 1021.0 |
| 20260902180530 | 22 | 0 | 0.0 | 0.0 | 0.00 | 0.08 | 0.00 | 75 | 1021.3 |
| 20260902180056 | 22 | 0 | 0.0 | 0.0 | 0.00 | 0.08 | 0.00 | 77 | 1021.3 |
| 20260902175528 | 22 | 0 | 0.0 | 0.0 | 0.00 | 0.08 | 0.00 | 78 | 1021.3 |
| 20260902175031 | 22 | 0 | 0.0 | 1.6 | 0.00 | 0.08 | 0.00 | 76 | 1021.4 |
| 20260902174552 | 22 | 0 | 0.0 | 1.6 | 0.00 | 0.08 | 0.00 | 76 | 1021.4 |
| 20260902174029 | 22 | 123 | 0.0 | 4.8 | 0.00 | 0.08 | 0.00 | 79 | 1021.5 |
| 20260902173533 | 22 | 0 | 0.0 | 4.8 | 0.00 | 0.08 | 0.00 | 77 | 1021.4 |
| 20260902173046 | 22 | 238 | 1.6 | 4.8 | 0.00 | 0.08 | 0.00 | 75 | 1021.5 |
| 20260902172530 | 22 | 243 | 0.0 | 4.8 | 0.00 | 0.08 | 0.00 | 80 | 1021.5 |
| 20260902172029 | 22 | 30 | 1.6 | 4.8 | 0.00 | 0.08 | 0.00 | 80 | 1021.6 |
| 20260902171556 | 22 | 105 | 0.0 | 3.2 | 0.00 | 0.08 | 0.00 | 78 | 1021.5 |
| 20260902171030 | 22 | 195 | 1.6 | 4.8 | 0.00 | 0.08 | 0.00 | 79 | 1021.6 |
| 20260902170531 | 22 | 0 | 1.6 | 4.8 | 0.00 | 0.08 | 0.00 | 81 | 1021.5 |
| 20260902170055 | 21 | 244 | 1.6 | 3.2 | 0.00 | 0.08 | 0.00 | 80 | 1021.4 |
| 20260902165530 | 21 | 0 | 0.0 | 6.4 | 0.00 | 0.71 | 0.00 | 81 | 1021.4 |
| 20260902165028 | 21 | 218 | 1.6 | 6.4 | 0.00 | 0.71 | 0.00 | 81 | 1021.6 |
| 20260902164559 | 21 | 155 | 0.0 | 3.2 | 0.00 | 0.71 | 0.00 | 83 | 1021.7 |
| 20260902164031 | 21 | 0 | 0.0 | 3.2 | 0.00 | 0.71 | 0.00 | 84 | 1021.7 |
| 20260902163531 | 21 | 311 | 0.0 | 3.2 | 0.00 | 0.71 | 0.00 | 82 | 1021.8 |
| 20260902163050 | 21 | 223 | 0.0 | 3.2 | 0.00 | 0.71 | 0.00 | 82 | 1021.9 |
| 20260902162529 | 21 | 0 | 0.0 | 1.6 | 0.00 | 0.71 | 0.00 | 85 | 1022.1 |
| 20260902162030 | 21 | 0 | 0.0 | 1.6 | 0.00 | 0.71 | 0.00 | 87 | 1022.0 |
| 20260902161558 | 21 | 134 | 0.0 | 1.6 | 0.00 | 0.71 | 0.00 | 85 | 1022.2 |
| 20260902161029 | 20 | 0 | 0.0 | 1.6 | 0.00 | 0.71 | 0.00 | 87 | 1022.1 |
| 20260902160528 | 20 | 210 | 0.0 | 1.6 | 0.00 | 0.71 | 0.00 | 87 | 1022.1 |
| 20260902160042 | 20 | 0 | 0.0 | 1.6 | 0.00 | 0.71 | 0.00 | 85 | 1022.3 |
| 20260902155528 | 20 | 0 | 0.0 | 1.6 | 0.00 | 0.71 | 0.00 | 85 | 1022.3 |
| 20260902155028 | 20 | 0 | 0.0 | 4.8 | 0.00 | 0.71 | 0.00 | 88 | 1022.3 |
| 20260902154557 | 20 | 0 | 0.0 | 4.8 | 0.00 | 0.71 | 0.00 | 87 | 1022.3 |
| 20260902154027 | 20 | 0 | 0.0 | 3.2 | 0.00 | 0.71 | 0.00 | 86 | 1022.2 |
| 20260902153529 | 20 | 0 | 0.0 | 3.2 | 0.00 | 0.71 | 0.00 | 88 | 1022.4 |
| 20260902153047 | 20 | 200 | 0.0 | 3.2 | 0.00 | 0.71 | 0.00 | 87 | 1022.4 |
| 20260902152528 | 20 | 0 | 0.0 | 4.8 | 0.00 | 0.71 | 0.00 | 89 | 1022.3 |
| 20260902152028 | 20 | 225 | 1.6 | 4.8 | 0.00 | 0.71 | 0.00 | 86 | 1022.4 |
| 20260902151545 | 20 | 0 | 0.0 | 0.0 | 0.00 | 0.71 | 0.00 | 90 | 1022.4 |
| 20260902151026 | 19 | 0 | 0.0 | 0.0 | 0.00 | 0.71 | 0.00 | 88 | 1022.7 |
| 20260902150529 | 19 | 0 | 0.0 | 0.0 | 0.00 | 0.71 | 0.00 | 89 | 1022.7 |
| 20260902150043 | 19 | 0 | 0.0 | 0.0 | 0.00 | 0.71 | 0.00 | 91 | 1022.8 |
| 20260902145529 | 18 | 0 | 0.0 | 0.0 | 0.00 | 0.79 | 0.00 | 91 | 1022.7 |
| 20260902145030 | 18 | 0 | 0.0 | 0.0 | 0.00 | 0.79 | 0.00 | 91 | 1022.7 |
| 20260902144550 | 18 | 0 | 0.0 | 0.0 | 0.00 | 0.79 | 0.00 | 91 | 1022.6 |
| 20260902144027 | 18 | 0 | 0.0 | 0.0 | 0.00 | 0.79 | 0.00 | 92 | 1022.6 |
| 20260902143531 | 18 | 0 | 0.0 | 0.0 | 0.00 | 0.79 | 0.00 | 92 | 1022.7 |
| 20260902143046 | 18 | 0 | 0.0 | 0.0 | 0.00 | 0.79 | 0.00 | 94 | 1022.7 |
| 20260902142528 | 18 | 0 | 0.0 | 1.6 | 0.00 | 0.79 | 0.00 | 94 | 1022.9 |
| 20260902142028 | 18 | 0 | 0.0 | 1.6 | 0.00 | 0.79 | 0.00 | 93 | 1022.8 |
| 20260902141551 | 18 | 0 | 0.0 | 1.6 | 0.00 | 0.79 | 0.00 | 94 | 1022.8 |
| 20260902141032 | 18 | 0 | 0.0 | 1.6 | 0.00 | 0.79 | 0.00 | 94 | 1022.6 |
| 20260902140528 | 17 | 312 | 0.0 | 1.6 | 0.00 | 0.79 | 0.00 | 95 | 1022.6 |
| 20260902140048 | 17 | 0 | 0.0 | 1.6 | 0.00 | 0.79 | 0.00 | 96 | 1022.6 |
| 20260902135527 | 17 | 0 | 0.0 | 1.6 | 0.00 | 0.94 | 0.00 | 96 | 1022.5 |
| 20260902135027 | 17 | 336 | 0.0 | 1.6 | 0.00 | 0.94 | 0.00 | 96 | 1022.6 |
| 20260902134548 | 17 | 0 | 0.0 | 3.2 | 0.00 | 0.94 | 0.00 | 97 | 1022.3 |
| 20260902134029 | 17 | 0 | 0.0 | 3.2 | 0.00 | 0.94 | 0.00 | 97 | 1022.3 |
| 20260902133529 | 17 | 260 | 0.0 | 3.2 | 0.00 | 0.94 | 0.00 | 97 | 1022.3 |
| 20260902133057 | 17 | 0 | 0.0 | 3.2 | 0.00 | 0.94 | 0.00 | 98 | 1022.3 |
| 20260902132530 | 17 | 0 | 0.0 | 1.6 | 0.00 | 0.94 | 0.00 | 99 | 1022.1 |
| 20260902132028 | 17 | 274 | 0.0 | 1.6 | 0.00 | 0.94 | 0.00 | 98 | 1022.1 |
| 20260902131546 | 17 | 0 | 0.0 | 1.6 | 0.00 | 0.94 | 0.00 | 99 | 1022.0 |
| 20260902131029 | 17 | 261 | 0.0 | 1.6 | 0.00 | 0.94 | 0.00 | 99 | 1022.0 |